Presure
359 390 422 321 226 247 202 199 190 183 190 187 137 135 89 84 83 89 95 90 208 92 217 80 203 89 96 196 208 227 105 171 122 117 198 167 180 179 190 175 176 170 95 143
394 394 408 332 107 246 189 197 188 184 187 178 149 205 211 182 203 119 111 87 103 94 95 103 168 185 192 144 159 217 123 134 152 187 178 133 184 169 183 181 142 118 134 115
389 449 464 335 233 251 196 192 190 155 175 180 175 205 155 203 208 204 207 148 153 150 100 103 188 188 115 191 203 103 213 210 207 202 204 182 178 152 187 161 176 121 119 173
379 401 385 131 230 255 205 190 190 189 174 180 176 201 212 204 202 207 201 196 160 146 180 190 193 186 193 187 198 111 193 159 208 205 202 162 116 170 135 183 128 159 174 150
401 357 392 334 227 257 204 191 185 81 177 179 186 224 208 201 204 163 197 197 185 191 187 181 181 159 125 170 170 192 213 204 201 201 121 167 198 190 182 187 189 127 136 137
129 87 368 323 238 234 206 188 193 177 178 175 184 205 203 210 197 198 194 189 181 187 191 181 189 171 179 182 191 176 174 204 213 118 205 205 206 196 196 193 182 182 179 156
339 367 363 227 251 212 155 190 191 175 175 180 125 212 148 138 134 98 98 129 153 182 189 176 179 175 180 178 170 181 186 183 191 193 195 179 196 198 196 195 199 170 185 195
244 346 260 223 238 215 112 190 183 180 164 183 193 211 189 188 191 188 183 180 178 176 178 171 175 184 168 173 175 176 186 176 191 198 165 188 190 194 192 135 174 191 192 194
324 265 224 210 218 210 202 188 163 164 167 170 189 189 195 190 190 188 181 181 178 193 180 171 174 177 172 172 165 179 171 161 179 175 170 186 125 192 193 191 193 193 200 201
298 224 261 236 210 207 138 150 185 164 174 173 187 197 194 185 186 186 182 179 177 135 172 160 116 154 111 169 174 166 160 184 177 148 176 178 175 182 163 184 181 178 181 183
214 226 191 124 86 197 190 173 137 113 168 170 184 195 192 189 187 185 180 180 184 193 168 200 195 152 164 160 167 177 161 191 175 181 170 173 174 196 170 165 172 188 182 185
116 225 232 209 204 195 189 191 190 179 172 174 192 165 186 184 182 180 178 178 176 162 163 176 188 180 94 132 164 180 177 179 171 172 162 172 186 189 179 178 174 187 186 195
213 239 218 112 193 201 186 183 153 188 177 178 190 176 185 183 176 183 172 177 161 172 89 170 190 163 160 185 146 171 201 162 172 178 183 180 172 137 177 181 155 195 193 204
242 168 179 213 200 158 179 187 190 190 178 175 183 175 184 179 182 181 177 170 164 178 174 186 134 174 97 170 178 186 170 181 181 178 174 199 192 180 180 131 180 196 205 212
257 228 204 204 184 192 195 192 175 179 189 183 183 179 98 172 171 177 165 185 167 166 161 166 171 186 190 188 189 182 189 192 194 182 182 180 181 147 186 193 191 206 213 239
246 209 201 192 193 192 193 191 175 177 177 176 175 181 189 187 170 170 177 180 165 175 168 174 172 172 171 173 162 181 181 180 176 178 193 125 183 193 169 203 210 216 241 193
246 210 201 198 199 195 181 182 181 181 182 172 177 167 189 184 179 179 183 189 192 181 176 167 166 164 164 183 182 186 192 195 190 130 151 171 193 193 202 228 190 213 129 123
270 236 204 199 195 192 185 188 185 183 181 179 168 172 176 167 163 181 185 186 188 192 184 164 167 175 176 185 188 192 183 128 137 196 193 195 196 202 199 227 127 126 137 239
265 278 210 207 197 188 195 195 186 186 186 183 181 178 177 179 175 171 170 169 169 170 172 178 183 186 187 188 137 129 135 188 201 200 197 193 230 142 154 137 127 217 246 206
322 332 262 212 201 199 198 190 187 186 191 188 183 185 183 185 183 181 181 181 182 181 183 187 189 192 176 193 192 140 209 200 190 195 203 129 135 230 139 234 134 227 179 211
207 262 301 317 224 207 203 198 192 194 189 189 188 188 188 187 187 188 187 189 191 193 194 197 124 129 198 124 210 205 190 189 197 199 158 231 125 172 206 254 209 170 208 200
293 199 195 215 249 295 225 209 202 196 197 195 194 193 195 196 196 197 139 202 202 156 240 203 206 208 192 211 186 193 193 202 150 138 152 210 251 241 211 216 213 203 131 197
241 242 247 227 204 215 292 282 266 254 151 255 258 254 153 177 249 252 249 247 231 225 152 224 218 212 194 199 194 202 234 190 142 223 240 176 206 229 214 158 200 187 201 207
204 208 227 236 240 241 244 244 245 245 240 192 160 209 233 212 230 234 214 229 148 221 203 184 197 188 195 187 240 237 231 137 245 165 209 223 213 203 199 186 194 206 204 206
186 187 181 188 202 210 216 189 227 151 228 228 227 216 223 165 183 164 173 206 153 199 131 174 199 236 235 233 235 194 132 187 207 226 209 204 208 206 188 205 205 205 210 219
201 199 195 195 198 201 189 187 188 186 193 196 205 175 127 196 192 192 198 198 198 222 235 236 235 233 229 204 139 188 209 220 209 205 202 205 192 196 201 211 212 213 219 247
Wind_Speed
74 77 79 94 97 92 91 84 69 65 67 63 54 57 40 33 29 40 45 35 51 38 40 31 37 33 41 40 39 35 40 38 43 43 41 44 48 48 49 49 50 51 36 41
66 73 75 92 39 96 83 82 70 65 64 58 52 52 47 53 52 45 31 38 34 43 46 53 39 37 39 45 43 35 39 44 40 42 45 45 51 50 53 53 44 39 44 44
40 39 54 96 97 98 85 78 73 55 57 58 58 53 49 53 48 47 45 47 44 43 53 55 34 36 46 39 34 40 32 36 39 41 43 50 52 46 56 54 57 46 47 58
40 50 67 31 92 94 90 77 70 64 59 61 52 51 47 50 48 44 43 43 46 46 37 32 33 34 37 38 37 50 38 39 41 42 45 46 44 54 53 58 50 58 61 59
38 47 61 90 88 93 89 76 67 27 58 55 54 56 52 51 48 50 44 42 42 37 36 34 32 44 49 40 41 39 30 37 39 43 45 52 55 59 60 61 62 56 59 61
25 21 63 81 92 94 88 69 71 56 56 57 53 51 48 51 46 43 44 40 40 36 37 34 35 40 40 41 37 41 42 34 34 46 44 47 50 59 61 63 65 67 69 67
42 58 75 92 94 95 63 76 65 57 57 59 33 54 45 46 45 44 43 43 42 37 37 39 38 39 41 42 43 45 44 45 43 44 46 49 50 53 59 62 61 59 62 67
34 72 95 87 96 93 37 60 51 56 55 52 48 53 41 49 49 44 44 42 41 40 38 40 39 40 41 45 48 48 47 48 47 45 48 51 54 57 60 53 63 68 70 71
73 94 85 75 90 84 76 62 47 49 56 48 47 46 48 47 46 45 45 45 44 46 43 39 42 45 47 48 46 50 50 44 51 51 53 55 53 60 62 64 67 70 72 73
78 81 95 95 71 81 46 48 62 55 57 48 45 50 44 44 47 48 47 46 43 37 45 41 39 40 34 50 55 51 49 54 56 54 59 59 59 63 58 68 70 71 74 77
73 76 53 31 25 71 61 51 42 29 49 43 45 48 47 44 48 48 46 46 47 46 39 45 47 47 49 48 57 60 50 58 59 62 57 63 66 67 66 66 73 75 81 82
18 77 83 76 74 65 63 66 62 53 50 48 53 44 47 43 46 48 47 49 47 38 39 51 54 57 38 51 57 66 65 66 61 64 56 68 75 74 76 77 76 84 88 85
52 59 69 22 58 65 48 48 45 57 49 49 49 43 48 47 43 51 47 49 41 48 39 54 55 52 44 58 51 66 58 57 69 75 76 75 72 48 78 82 62 86 88 90
64 52 55 71 62 48 53 59 59 58 49 47 48 43 51 46 44 47 49 48 47 57 58 55 43 59 38 63 67 66 64 72 75 74 74 71 76 79 83 57 85 89 91 93
71 69 56 58 53 56 62 54 38 39 49 46 50 47 20 37 43 50 49 58 55 55 49 54 61 57 59 62 64 64 69 71 71 77 78 80 82 62 82 89 89 92 93 88
67 64 63 64 60 53 54 52 45 48 51 53 47 54 58 57 49 50 56 59 54 61 58 62 66 68 69 72 59 73 75 77 75 79 79 52 80 87 71 92 94 95 87 79
65 64 63 60 60 52 43 50 51 53 55 54 52 56 51 52 50 52 56 59 60 61 64 62 64 63 64 72 74 75 75 76 79 50 62 74 86 89 93 91 85 80 62 63
56 63 51 58 53 53 52 55 57 56 56 56 48 41 46 42 41 54 56 58 61 64 63 61 65 71 72 75 76 78 77 49 50 83 86 89 91 93 84 95 60 60 67 91
48 52 57 61 57 50 58 59 57 59 62 59 62 52 50 52 48 51 54 56 58 61 66 69 73 76 78 79 50 47 48 80 86 87 90 90 89 59 62 60 62 86 88 91
18 17 55 61 60 60 59 52 55 57 66 67 63 62 58 59 59 64 65 66 70 71 73 77 79 82 70 82 80 51 87 86 86 91 93 54 54 82 60 87 64 88 78 93
38 28 25 21 66 62 61 59 55 60 61 60 63 65 66 66 67 71 72 75 77 80 80 81 38 42 82 45 83 86 82 86 92 65 57 80 56 69 80 87 88 80 93 98
16 44 46 43 38 33 65 66 63 59 62 61 63 66 69 70 72 74 35 78 79 39 66 57 62 66 66 82 82 87 89 92 56 50 57 75 85 83 85 86 89 95 68 103
28 31 30 42 48 48 27 27 34 39 30 40 43 47 29 38 50 50 54 57 58 64 46 72 75 77 82 84 86 89 77 62 51 73 78 68 83 83 86 74 95 95 105 110
37 34 32 31 34 35 36 39 40 41 43 60 45 48 52 46 53 57 53 61 44 68 65 72 79 74 82 65 70 71 73 52 75 63 78 79 83 88 90 92 98 105 107 113
46 45 46 46 44 44 43 36 42 32 45 47 49 48 53 41 48 47 52 68 51 73 42 65 68 65 65 67 69 61 52 65 75 75 80 85 89 92 93 101 103 107 115 123
49 50 51 51 52 51 51 52 54 54 55 57 59 53 36 63 64 68 70 71 72 63 60 60 60 61 64 60 50 63 71 71 75 80 85 89 91 95 99 105 109 116 121 131
Wind_Direction
260 239 227 220 211 206 214 215 214 218 225 230 230 231 248 254 248 255 253 260 250 266 253 262 260 271 287 274 278 271 286 274 279 284 257 270 268 272 268 272 270 273 285 289
246 236 220 206 216 203 211 213 214 216 222 224 233 230 221 233 231 250 242 260 262 267 269 267 263 265 272 280 266 274 283 277 280 266 265 280 268 275 272 272 282 287 287 285
224 220 205 200 202 199 208 210 212 222 216 226 226 227 230 229 230 232 236 238 243 249 262 265 260 266 282 281 279 287 272 270 267 263 265 266 270 276 271 277 274 291 288 277
205 186 195 204 198 195 206 209 211 214 218 227 230 230 221 226 229 228 231 235 247 254 253 256 263 271 272 281 284 279 277 277 268 266 267 274 285 274 283 274 284 282 281 285
176 182 189 187 195 190 203 207 208 227 218 226 230 219 216 222 227 233 231 234 241 246 252 258 267 261 272 272 276 285 274 272 272 270 281 276 271 273 276 278 278 289 288 289
196 223 183 180 190 191 204 206 208 203 216 222 226 221 214 216 226 225 231 235 241 248 251 258 259 267 272 278 276 282 280 278 278 284 275 276 274 276 278 278 279 281 282 285
184 176 171 183 181 192 202 205 206 206 216 225 235 219 230 233 240 253 255 249 248 247 250 259 261 269 272 278 278 284 286 285 281 279 279 280 280 280 280 281 283 288 286 285
184 168 172 184 183 196 200 201 200 211 219 224 225 216 213 220 224 228 233 240 244 248 251 260 265 264 273 278 282 283 281 286 283 281 284 282 282 282 283 290 286 285 286 287
167 168 180 187 189 194 198 200 200 211 220 216 219 223 213 221 227 228 234 239 244 242 249 261 265 265 272 277 276 278 283 280 288 290 292 291 287 285 285 286 288 289 290 290
165 177 174 182 191 192 205 204 204 214 220 219 220 221 216 222 229 232 237 243 250 252 255 263 271 265 281 274 275 283 283 279 288 289 293 292 296 290 288 292 292 294 294 293
173 179 186 207 221 195 199 198 210 231 224 224 221 221 220 220 229 236 243 247 249 245 265 249 257 267 277 269 283 280 278 277 288 285 295 294 296 286 294 291 295 292 293 293
202 178 183 188 193 197 199 201 207 214 223 226 222 225 225 224 230 239 245 249 253 264 271 267 256 263 281 276 285 274 280 280 289 292 291 294 287 287 291 293 296 291 292 293
186 182 186 221 198 199 202 207 215 218 226 233 225 233 231 231 234 234 250 249 265 265 264 271 261 281 272 273 286 283 282 292 290 286 283 288 293 290 292 292 289 291 293 298
185 202 193 192 195 202 204 209 212 215 225 233 235 232 236 241 242 240 243 252 264 254 263 266 275 270 285 278 274 272 284 279 280 285 292 292 288 290 292 293 295 295 299 301
186 186 195 197 204 207 211 214 214 226 232 236 240 244 255 249 250 249 258 247 256 261 272 271 270 267 272 273 275 280 280 284 285 283 286 287 289 291 289 292 294 298 301 300
191 191 196 200 207 210 213 216 215 223 227 232 237 243 240 238 244 249 250 255 263 261 267 265 268 271 275 276 285 279 281 284 287 287 287 293 289 290 294 296 299 301 296 299
196 195 200 206 210 213 212 219 222 226 232 236 240 243 249 251 253 258 260 263 266 261 262 267 272 277 281 278 280 282 286 288 287 287 289 290 292 295 296 299 300 296 299 300
204 203 208 210 216 216 219 222 225 229 235 239 247 250 253 257 259 262 264 265 268 270 268 272 274 275 278 281 284 285 285 285 284 291 291 293 293 296 298 300 297 299 300 299
207 209 210 213 217 221 224 224 228 233 238 242 247 251 255 258 263 265 267 267 268 269 270 273 276 279 280 281 282 281 280 288 290 292 292 294 296 291 291 294 297 299 300 300
196 196 214 216 218 221 227 230 232 235 239 243 250 254 259 260 263 265 266 269 270 272 273 274 276 278 279 284 285 284 289 290 291 292 294 286 288 297 295 298 302 300 300 300
211 207 203 200 222 224 228 231 234 237 241 244 249 252 255 257 260 262 264 265 267 269 271 274 280 282 281 285 285 286 289 292 292 293 288 295 295 297 299 300 299 302 301 302
194 215 217 218 219 222 229 233 235 239 245 246 249 252 255 256 257 259 257 266 268 267 273 275 280 281 281 283 288 288 290 292 288 289 294 297 298 298 299 302 300 301 306 306
197 202 205 218 224 223 227 228 229 234 235 243 247 249 255 252 257 260 262 264 267 269 278 274 276 279 281 282 285 288 290 289 292 296 298 299 298 301 300 301 302 307 305 304
216 215 217 219 219 220 223 227 229 234 240 248 255 249 251 254 257 260 261 264 275 269 273 281 278 281 284 289 286 288 290 292 296 300 297 300 300 298 299 307 307 304 305 307
234 234 239 237 230 226 229 240 235 250 243 246 249 253 253 266 262 266 267 266 273 272 281 280 281 283 285 286 287 289 294 296 295 299 297 296 298 300 306 304 304 307 309 309
232 232 236 237 237 235 244 247 248 251 250 251 248 258 273 260 266 268 268 271 274 275 277 281 284 284 284 288 290 291 293 298 295 295 297 299 302 303 303 306 309 310 310 310